Location: Augsburg
(48.3836°N, 10.8929°E)
Time: 03:03:55
(UTC+01:00)

ISS - Pass Details

Date: 02 December 2021
Orbit: 413 x 422 km, 51.6° (Epoch: 24 January)

Event Time Altitude Azimuth Distance (km) Brightness Sun altitude
Rises 17:48:27 0° 288° (WNW) 2,386 1.0 -13.5°
Reaches altitude 10° 17:50:35 10° 293° (WNW) 1,518 -0.2 -13.8°
Maximum altitude 17:53:57 59° 13° (NNE) 496 -3.6 -14.4°
Enters shadow 17:55:22 30° 81° (E) 779 -3.0 -14.6°
